Location: Poughquag
(41.6090°N, 73.6820°W)
Time: 08:49:56
(UTC-05:00)

DIWATA 2B (PO-101) - Pass Details

Date: 19 November 2025
Orbit: 563 x 574 km, 98.1° (Epoch: 07 December)

Event Time Altitude Azimuth Distance (km) Brightness Sun altitude
Rises 05:20:43 0° 173° (S) 2,758 ? -16.4°
Reaches altitude 10° 05:22:51 10° 176° (S) 1,864 ? -16.0°
Maximum altitude 05:26:52 65° 258° (WSW) 629 ? -15.3°
Drops below altitude 10° 05:30:53 10° 341° (NNW) 1,872 ? -14.5°
Enters shadow 05:31:45 - 343° (NNW) 2,225 ? -14.4°
